This is the latest recevied weather packets stored in our database for station/object SQ9NFI-4. If no packets are shown the sender has not sent any weather packets the latest 10 day(s).
| Time | Temp. | Humidity | Pressure | Rain* | Wind** | Luminosity | Snow |
|---|---|---|---|---|---|---|---|
| 1777649416 | 21.67° C | 34% | 1024.4 hPa | 0 mm | - | 223 W/m² | - |
| 1777649116 | 21.67° C | 34% | 1024.4 hPa | 0 mm | - | 267 W/m² | - |
| 1777648816 | 21.67° C | 34% | 1024.4 hPa | 0 mm | - | 282 W/m² | - |
| 1777648516 | 22.22° C | 33% | 1024.4 hPa | 0 mm | - | 284 W/m² | - |
| 1777648216 | 21.67° C | 34% | 1024.7 hPa | 0 mm | - | 310 W/m² | - |
| 1777647916 | 20.56° C | 35% | 1024.7 hPa | 0 mm | - | 306 W/m² | - |
| 1777647616 | 21.11° C | 35% | 1024.7 hPa | 0 mm | - | 301 W/m² | - |
| 1777647316 | 20° C | 36% | 1024.7 hPa | 0 mm | - | 100 W/m² | - |
| 1777647016 | 20.56° C | 36% | 1024.7 hPa | 0 mm | - | 93 W/m² | - |
| 1777646716 | 21.67° C | 34% | 1024.7 hPa | 0 mm | - | 269 W/m² | - |
| 1777646416 | 21.67° C | 34% | 1024.7 hPa | 0 mm | - | 384 W/m² | - |
| 1777646116 | 22.22° C | 33% | 1025.1 hPa | 0 mm | - | 401 W/m² | - |
| 1777645816 | 21.67° C | 34% | 1025.1 hPa | 0 mm | - | 404 W/m² | - |
| 1777645516 | 21.67° C | 34% | 1024.7 hPa | 0 mm | - | 414 W/m² | - |
| 1777645216 | 21.11° C | 35% | 1024.7 hPa | 0 mm | - | 427 W/m² | - |
| 1777644916 | 21.67° C | 35% | 1024.7 hPa | 0 mm | - | 151 W/m² | - |
| 1777644616 | 21.11° C | 35% | 1025.1 hPa | 0 mm | - | 449 W/m² | - |
| 1777644316 | 21.67° C | 34% | 1025.1 hPa | 0 mm | - | 395 W/m² | - |
| 1777644016 | 21.67° C | 35% | 1025.1 hPa | 0 mm | - | 452 W/m² | - |
| 1777643716 | 21.67° C | 36% | 1025.1 hPa | 0 mm | - | 509 W/m² | - |
| 1777643416 | 21.67° C | 34% | 1025.1 hPa | 0 mm | - | 555 W/m² | - |
| 1777643116 | 21.67° C | 35% | 1025.1 hPa | 0 mm | - | 542 W/m² | - |
| 1777642816 | 20.56° C | 36% | 1025.1 hPa | 0 mm | - | 147 W/m² | - |
| 1777642516 | 21.11° C | 35% | 1025.1 hPa | 0 mm | - | 437 W/m² | - |
| 1777642216 | 21.67° C | 34% | 1025.1 hPa | 0 mm | - | 574 W/m² | - |
* Rain latest hour (hover to see other rain measurements)
** Current wind speed in m/s (hover to see current wind gust speed)